Millinocket, ME

8:44 AM EST on January 22, 2017 (GMT -0500)
Millinocket Municipal

Weather History for KMLT - January, 2014

Change the Weather History Date:

Thursday, January 30, 2014

  Actual Average Record
Temperature  
Mean Temperature 11 °F 14 °F  
Max Temperature 23 °F 24 °F 48 °F (2013)
Min Temperature -1 °F 4 °F -24 °F (1971)
Degree Days  
Heating Degree Days 54 51  
Month to date heating degree days 1480 1531  
Since 1 July heating degree days 4636 4696  
Cooling Degree Days 0 0  
Month to date cooling degree days 0 0  
Year to date cooling degree days 0 0  
Moisture  
Dew Point 0 °F    
Average Humidity 62    
Maximum Humidity 79    
Minimum Humidity 44    
Precipitation  
Precipitation T in 0.08 in 1.02 in (1973)
Month to date precipitation 3.58 2.86  
Year to date precipitation 3.58 2.86  
Sea Level Pressure  
Sea Level Pressure 30.24 in    
Wind  
Wind Speed 3 mph (SW)    
Max Wind Speed 16 mph    
Max Gust Speed 23 mph    
Visibility 10 miles    
Events      
T = Trace of Precipitation, MM = Missing Value Source: NWS Daily Summary

Daily Weather History Graph

Daily Weather History Graph

Search for Another Location

Airport or City:

Trip Planner

Search our weather history database for the weather conditions in past years. The results will help you decide how hot, cold, wet, or windy it might be!

Date:

Astronomy

Jan. 30, 2014 Rise Set
Actual Time 6:58 AM EST 4:38 PM EST
Civil Twilight 6:26 AM EST 5:10 PM EST
Nautical Twilight 5:50 AM EST 5:45 PM EST
Astronomical Twilight 5:16 AM EST 6:20 PM EST
Moon 6:19 AM EST (1/30) 4:48 PM EST (1/30)
Length of Visible Light 10h 43m
Length of Day
9h 39m
Waning Crescent, 0% of the Moon is Illuminated
Jan 30
Waning Crescent
Jan 30
New
Feb 6
First Quarter
Feb 14
Full
Feb 22
Last Quarter

Hourly Weather History & Observations

Time (EST) Temp. Windchill Dew Point Humidity Pressure Visibility Wind Dir Wind Speed Gust Speed Precip Events Conditions
12:53 AM 10.9 °F 0.2 °F -2.0 °F 56% 30.08 in 10.0 mi Variable 6.9 mph - N/A   Clear
1:53 AM 9.0 °F - -0.9 °F 64% 30.11 in 10.0 mi Calm Calm - N/A   Clear
2:53 AM 6.1 °F -0.9 °F -2.0 °F 69% 30.14 in 10.0 mi Variable 3.5 mph - N/A   Scattered Clouds
3:53 AM 3.0 °F - -4.0 °F 73% 30.17 in 10.0 mi Calm Calm - N/A   Clear
4:53 AM 6.1 °F - -2.0 °F 69% 30.21 in 8.0 mi Calm Calm - N/A   Overcast
5:01 AM 7.0 °F 0.1 °F -2.0 °F 67% 30.17 in 9.0 mi WSW 3.5 mph - N/A   Overcast
5:23 AM 6.1 °F -0.9 °F -2.0 °F 69% 30.20 in 10.0 mi WSW 3.5 mph - N/A   Overcast
5:53 AM 6.1 °F - -2.0 °F 69% 30.26 in 10.0 mi Calm Calm - 0.00 in   Mostly Cloudy
6:12 AM 1.0 °F -6.7 °F -5.1 °F 75% 30.23 in 10.0 mi East 3.5 mph - N/A   Partly Cloudy
6:53 AM 1.9 °F - -4.0 °F 76% 30.30 in 10.0 mi Calm Calm - N/A   Clear
7:53 AM 5.0 °F - -2.0 °F 73% 30.33 in 10.0 mi Calm Calm - N/A   Clear
8:53 AM 12.0 °F 2.7 °F -0.9 °F 56% 30.34 in 7.0 mi West 5.8 mph - N/A   Clear
9:53 AM 14.0 °F 0.5 °F -2.0 °F 49% 30.35 in 10.0 mi WNW 11.5 mph 18.4 mph 0.00 in   Clear
10:53 AM 16.0 °F 5.3 °F -0.9 °F 47% 30.37 in 10.0 mi West 8.1 mph 17.3 mph N/A   Clear
11:53 AM 18.0 °F 9.8 °F -0.0 °F 45% 30.35 in 10.0 mi WSW 5.8 mph - N/A   Clear
12:53 PM 19.9 °F 12.1 °F 1.9 °F 46% 30.32 in 10.0 mi West 5.8 mph - N/A   Clear
1:53 PM 21.9 °F 14.5 °F 3.0 °F 44% 30.30 in 10.0 mi Variable 5.8 mph - N/A   Clear
2:53 PM 23.0 °F 17.0 °F 3.0 °F 42% 30.29 in 10.0 mi Variable 4.6 mph - N/A   Clear
3:53 PM 21.9 °F 15.7 °F 3.0 °F 44% 30.28 in 10.0 mi Variable 4.6 mph - N/A   Clear
4:53 PM 19.9 °F - 3.0 °F 48% 30.28 in 10.0 mi Calm Calm - N/A   Clear
5:53 PM 17.1 °F 11.7 °F 3.0 °F 54% 30.29 in 10.0 mi SE 3.5 mph - N/A   Clear
6:53 PM 10.9 °F - 1.9 °F 67% 30.26 in 10.0 mi Calm Calm - N/A   Clear
7:53 PM 15.1 °F 7.7 °F 3.0 °F 59% 30.24 in 10.0 mi SSE 4.6 mph - N/A   Clear
8:53 PM 15.1 °F - 5.0 °F 64% 30.22 in 10.0 mi Calm Calm - N/A   Clear
9:53 PM 16.0 °F 8.8 °F 6.1 °F 65% 30.19 in 10.0 mi Variable 4.6 mph - N/A   Clear
10:53 PM 14.0 °F 6.5 °F 6.1 °F 71% 30.17 in 10.0 mi SE 4.6 mph - N/A   Clear
11:53 PM 12.0 °F - 6.1 °F 77% 30.14 in 10.0 mi Calm Calm - N/A   Clear